Laconia, NH

7:31 PM EST on November 18, 2019 (GMT -0500)
Laconia Municipal

Weather History for KLCI - September, 2019

Change the Weather History Date:

Thursday, September 26, 2019

  Actual Average Record
Temperature  
Mean Temperature 60 °F -  
Max Temperature 73 °F 65 °F 87 °F (2007)
Min Temperature 48 °F 43 °F 35 °F (2016)
Degree Days  
Heating Degree Days 4    
Growing Degree Days 10 (Base 50)    
Moisture  
Dew Point 53 °F    
Average Humidity 91    
Maximum Humidity 100    
Minimum Humidity 53    
Precipitation  
Precipitation 0.29 in - - ()
Sea Level Pressure  
Sea Level Pressure 29.80 in    
Wind  
Wind Speed 4 mph ()    
Max Wind Speed 13 mph    
Max Gust Speed 23 mph    
Visibility 7.1 miles    
Events Rain    
Averages and records for this station are not official NWS values.
T = Trace of Precipitation, MM = Missing Value Source: Averaged Metar Reports

Daily Weather History Graph

Daily Weather History Graph

Search for Another Location

Airport or City:

Astronomy

Sep. 26, 2019 Rise Set
Actual Time 6:37 AM EDT 6:36 PM EDT
Civil Twilight 6:08 AM EDT 7:04 PM EDT
Nautical Twilight 5:35 AM EDT 7:38 PM EDT
Astronomical Twilight 5:01 AM EDT 8:11 PM EDT
Moon 3:32 AM EDT (9/26) 5:53 PM EDT (9/26)
Length of Visible Light 12h 56m
Length of Day
11h 59m
Waning Crescent, 7% of the Moon is Illuminated
Sep 26
Waning Crescent
Sep 28
New
Oct 5
First Quarter
Oct 13
Full
Oct 21
Last Quarter

Hourly Weather History & Observations

Time (EDT) Temp. Dew Point Humidity Pressure Visibility Wind Dir Wind Speed Gust Speed Precip Events Conditions
12:56 AM 48.9 °F 48.0 °F 97% 29.86 in 10.0 mi Calm Calm - N/A   Clear
1:56 AM 48.9 °F 48.0 °F 97% 29.84 in 10.0 mi Calm Calm - N/A   Scattered Clouds
2:09 AM 50.0 °F 48.2 °F 94% 29.84 in 9.0 mi Variable 3.5 mph - N/A   Mostly Cloudy
2:46 AM 51.8 °F 51.8 °F 100% 29.83 in 1.8 mi Calm Calm - N/A   Overcast
2:56 AM 52.0 °F 52.0 °F 100% 29.83 in 1.2 mi SSW 4.6 mph - N/A   Overcast
3:00 AM 51.8 °F 51.8 °F 100% 29.83 in 3.0 mi SSW 4.6 mph - N/A   Overcast
3:08 AM 51.8 °F 51.8 °F 100% 29.83 in 1.5 mi SW 5.8 mph - N/A   Overcast
3:11 AM 51.8 °F 51.8 °F 100% 29.82 in 0.8 mi SW 5.8 mph - N/A   Overcast
3:25 AM 51.8 °F 51.8 °F 100% 29.82 in 1.5 mi West 6.9 mph - N/A   Overcast
3:27 AM 51.8 °F 51.8 °F 100% 29.82 in 3.0 mi West 5.8 mph - N/A   Overcast
3:56 AM 51.1 °F 51.1 °F 100% 29.83 in 10.0 mi SW 5.8 mph - N/A   Overcast
4:52 AM 51.8 °F 51.8 °F 100% 29.82 in 1.8 mi SW 5.8 mph - N/A   Overcast
4:56 AM 51.1 °F 51.1 °F 100% 29.82 in 0.8 mi WSW 5.8 mph - N/A   Overcast
5:08 AM 51.8 °F 51.8 °F 100% 29.82 in 1.2 mi West 5.8 mph - N/A   Overcast
5:13 AM 51.8 °F 51.8 °F 100% 29.82 in 3.0 mi WNW 3.5 mph - N/A   Mostly Cloudy
5:56 AM 52.0 °F 52.0 °F 100% 29.81 in 10.0 mi WSW 6.9 mph - N/A   Mostly Cloudy
6:56 AM 52.0 °F 52.0 °F 100% 29.81 in 10.0 mi SSW 4.6 mph - N/A   Scattered Clouds
7:56 AM 55.0 °F 53.1 °F 93% 29.81 in 10.0 mi SW 3.5 mph - N/A   Mostly Cloudy
8:56 AM 60.1 °F 54.0 °F 80% 29.80 in 10.0 mi Variable 5.8 mph - N/A   Overcast
9:56 AM 61.0 °F 55.0 °F 81% 29.79 in 10.0 mi WSW 4.6 mph - N/A   Overcast
10:56 AM 66.0 °F 55.9 °F 70% 29.76 in 10.0 mi Variable 3.5 mph - N/A   Overcast
11:56 AM 73.0 °F 55.0 °F 53% 29.73 in 10.0 mi WSW 12.7 mph - N/A   Clear
12:56 PM 72.0 °F 55.9 °F 57% 29.69 in 10.0 mi South 4.6 mph - N/A   Overcast
1:56 PM 71.1 °F 57.0 °F 61% 29.72 in 10.0 mi SSW 9.2 mph - N/A   Overcast
2:56 PM 66.9 °F 59.0 °F 76% 29.74 in 10.0 mi West 11.5 mph 23.0 mph 0.01 in Rain Light Rain
3:56 PM 63.0 °F 61.0 °F 93% 29.74 in 9.0 mi West 6.9 mph - 0.07 in Rain Rain
4:42 PM 62.6 °F 59.0 °F 88% 29.76 in 9.0 mi WSW 11.5 mph - 0.10 in Rain Rain
4:56 PM 61.0 °F 59.0 °F 93% 29.77 in 10.0 mi SW 6.9 mph - 0.12 in Rain Light Rain
5:56 PM 60.1 °F 55.9 °F 86% 29.75 in 10.0 mi WSW 3.5 mph - 0.07 in Rain Light Rain
6:56 PM 57.9 °F 55.9 °F 93% 29.77 in 10.0 mi Calm Calm - 0.02 in Rain Light Rain
7:56 PM 57.0 °F 55.9 °F 96% 29.80 in 10.0 mi SW 5.8 mph - 0.00 in   Clear
8:56 PM 55.9 °F 53.1 °F 90% 29.81 in 10.0 mi SSW 5.8 mph - N/A   Clear
9:56 PM 54.0 °F 53.1 °F 97% 29.84 in 10.0 mi SW 3.5 mph - N/A   Clear
10:56 PM 53.1 °F 52.0 °F 96% 29.88 in 10.0 mi WSW 4.6 mph - N/A   Clear
11:56 PM 52.0 °F 52.0 °F 100% 29.87 in 2.5 mi WNW 3.5 mph - N/A   Clear